Home   Weather   Helena   Past weeks

Flag for USA Past Weather in Helena, Montana, USA — Yesterday and Last 2 Weeks

Now
67 °F

Sunny.


Feels Like: 67 °F
Forecast: 49 / 78 °F
Wind: 8 mph from Northeast

Location: Helena Regional Airport

Current Time: Sep 26, 2016 at 1:10:41 PM

Latest Report: Sep 26, 2016 at 11:53 AM


Visibility: 10 mi

Pressure: 30.32 "Hg (26.24 "Hg at 1239m altitude)

Humidity: 44%

Dew Point: 44 °F

Location of HelenaLocation

Past Weather in Helena — Graph

°F

Helena Temperature Yesterday

Maximum temperature yesterday: 70 °F (at 3:53 PM)
Minimum temperature yesterday: 41 °F (at 6:53 AM)
Average temperature yesterday: 57 °F

High & Low Weather Summary for the Past Weeks

 TemperatureHumidityPressure
High79 °F (Sep 16, 3:53 PM)93% (Sep 15, 7:53 AM)30.47 "Hg (Sep 15, 7:53 AM)
Low37 °F (Sep 13, 6:53 AM)15% (Sep 16, 4:53 PM)29.78 "Hg (Sep 18, 3:53 AM)
Average55 °F57%30.10 "Hg
* Reported Sep 11 11:53 AM — Sep 26 11:53 AM, Helena, Weather by CustomWeather, © 2016

Note: Actual official high and low records may vary slightly from our data, if they occured in-between our weather recording intervals... More about our weather records

Advertising

Helena Weather History for the Previous 24 Hours

Scroll right to see more
 ConditionsComfort  
Time TempWeatherWind HumidityBarometerVisibility
11:53 AM
Mon, Sep 26
67 °FSunny.8 mph44%30.32 "Hg10 mi
10:53 AM61 °FSunny.3 mph54%30.36 "Hg10 mi
9:53 AM54 °FSunny.No wind67%30.40 "Hg10 mi
8:53 AM50 °FSunny.No wind74%30.40 "Hg10 mi
7:53 AM46 °FSunny.No wind83%30.41 "Hg10 mi
6:53 AM43 °FClear.No wind86%30.40 "Hg10 mi
5:53 AM45 °FClear.3 mph82%30.38 "Hg10 mi
4:53 AM52 °FClear.No wind66%30.36 "Hg10 mi
3:53 AM52 °FClear.3 mph66%30.36 "Hg10 mi
2:53 AM56 °FClear.No wind58%30.35 "Hg10 mi
1:53 AM54 °FClear.5 mph62%30.36 "Hg10 mi
12:53 AM54 °FClear.No wind62%30.37 "Hg10 mi
11:53 PM
Sun, Sep 25
60 °FClear.9 mph47%30.36 "Hg10 mi
10:53 PM58 °FClear.5 mph51%30.38 "Hg10 mi
9:53 PM58 °FClear.7 mph51%30.40 "Hg10 mi
8:53 PM62 °FClear.9 mph44%30.38 "Hg10 mi
7:53 PM63 °FClear.13 mph43%30.38 "Hg10 mi
6:53 PM65 °FPassing clouds.16 mph40%30.40 "Hg10 mi
5:53 PM68 °FSunny.13 mph33%30.37 "Hg10 mi
4:53 PM70 °FPassing clouds.13 mph28%30.37 "Hg10 mi
3:53 PM70 °FSunny.17 mph27%30.36 "Hg10 mi
2:53 PM68 °FSunny.16 mph23%30.38 "Hg10 mi
1:53 PM67 °FPassing clouds.17 mph22%30.39 "Hg10 mi
Weather by CustomWeather, © 2016

See weather overviewHow to use our weather pages